Simultaneous Nadir Overpasses (SNOs) Predictions

Prediction of SNOs between AQUA and METOP-A Satellite Orbit:

Table of predicted SNOs for the next 14.0 days since TLE Epoch: 5/25/2013
Index Date (AQUA) Time (AQUA) Lat,Lon (AQUA) SZA (AQUA ) Date (METOP-A) Time (METOP-A) Lat,Lon (METOP-A) SZA (METOP-A ) Distance(km) Time Diff (sec)
1 05/27/2013 12:32:02 -73.19, 167.66 128.24 05/27/2013 12:30:56 -73.16, 164.75 128.17 93.83 66
2 05/27/2013 13:21:43 73.90, -26.20 52.51 05/27/2013 13:21:21 73.92, -26.17 52.53 2.22 22
3 05/27/2013 14:11:10 -73.97, 141.28 127.43 05/27/2013 14:12:01 -73.98, 141.32 127.42 1.73 51
4 05/30/2013 08:06:22 -73.47,-126.48 128.38 05/30/2013 08:05:13 -73.39,-128.33 128.39 59.44 69
5 05/30/2013 08:55:58 73.92, 40.19 52.09 05/30/2013 08:55:43 73.89, 40.18 52.07 3.36 15
6 05/30/2013 09:45:25 -73.99,-152.32 127.84 05/30/2013 09:46:23 -73.96,-152.32 127.88 2.95 58
7 06/02/2013 03:40:41 -73.73, -60.60 128.49 06/02/2013 03:39:29 -73.66, -61.29 128.53 23.31 72
8 06/02/2013 04:30:12 73.93, 106.61 51.72 06/02/2013 04:30:04 73.90, 106.63 51.70 2.62 8
9 06/02/2013 05:19:39 -73.99, -85.89 128.22 06/02/2013 05:20:44 -73.98, -85.86 128.24 1.52 65
10 06/04/2013 23:14:56 -73.88, 5.53 128.67 06/04/2013 23:13:45 -73.87, 5.62 128.67 3.25 71
11 06/05/2013 00:04:24 73.92, 173.07 51.38 06/05/2013 00:04:24 73.91, 173.06 51.37 1.10 0
12 06/05/2013 00:53:51 -73.98, -19.42 128.57 06/05/2013 00:55:04 -73.99, -19.41 128.56 1.36 73
13 06/07/2013 18:49:08 -73.85, 72.03 128.97 06/07/2013 18:48:06 -73.87, 72.05 128.95 2.08 62
14 06/07/2013 19:38:36 73.90,-120.44 51.08 06/07/2013 19:38:45 73.91,-120.52 51.09 2.92 9




NCC Satellite Simultaneous Nadir Overpasses (SNOs) Prediction Service
